If you wish to contribute or participate in the discussions about articles you are invited to join SKYbrary as a registered user

 Actions

Arctic Village Airport

From SKYbrary Wiki

PARC
Airport
ICAO: PARC – IATA: ARC
Summary
Name Arctic Village Airport
Region North America
Territory Alaska US.gif
Location , Alaska
Serving Arctic Village
Elevation 637.642 m
2,092 ft
2,092 ft637.642 m
Type medium airport
Coordinates 68° 6' 52.92", -145° 34' 44.4"
Runways
Designator Length Width Surface ROPS
2/20 1372 m4,501.312 ft 23 m75.459 ft GVL /


METAR
Observation PARC 202256Z AUTO 13007KT 10SM SCT070 18/01 A2994 RMK AO2 SLP160 T01780011
Station Arctic Village, Arctic Village Airport
Date/Time 20 June 2018 22:56:00
Wind direction 130°
Wind speed 07 kts
Lowest cloud amount scattered clouds
Temperature 17.8°C
Dew point 1.1°C
Humidity 32%
QNH hPa
Weather condition n/a